GSAT0202 (GALILEO 6)

Last updated on Fri Oct 11 2024 00:02:28 GMT+0000 (Coordinated Universal Time)

1 40129U 14050B 24284.15040994 -.00000008 00000+0 00000+0 0 9995 2 40129 49.5580 297.5140 1613187 156.5405 211.7500 1.85520210 69072
UTC large
Height (km)
Speed (km/s)
/
Latitude / Longitude
Inclination (degrees)
Orbital Period (minutes)
Azimuth
Elevation
Range (km)
Doppler Factor

Next 0 passes for location: London (51.5072 / 0.1276)

Sorry there are no passes over London.